Weather reports worldwide

Advertisment
Lyon/Satolas, France (7481): temperature & dewpoint: 06.12.2019 12:00:00 - 12.12.2019 12:00:00 (CET)Lyon/Satolas, France (7481): temperature 5cm: 06.12.2019 12:00:00 - 12.12.2019 12:00:00 (CET)Lyon/Satolas, France (7481): temperature -20cm & temperature -100cm: 06.12.2019 12:00:00 - 12.12.2019 12:00:00 (CET)Lyon/Satolas, France (7481): wind speed & gusts: 06.12.2019 12:00:00 - 12.12.2019 12:00:00 (CET)Lyon/Satolas, France (7481): wind direction: 06.12.2019 12:00:00 - 12.12.2019 12:00:00 (CET)Lyon/Satolas, France (7481): reduced air pressure: 06.12.2019 12:00:00 - 12.12.2019 12:00:00 (CET)Lyon/Satolas, France (7481): visibility: 06.12.2019 12:00:00 - 12.12.2019 12:00:00 (CET)Lyon/Satolas, France (7481): precipitation: 06.12.2019 12:00:00 - 12.12.2019 12:00:00 (CET)
Date & Time tt [°C] td [°C] tt 5cm [°C] tt -20cm [°C] tt -100cm [°C] ff [km/h] ff [kn] fx [km/h] fx [kn] dd ppp [hPa] vv [km] rr [mm]
12.12.2019 12:00:00 - - - - - - - - - - - - -
12.12.2019 11:00:00 5,7 0,8 4,8 4,9 9,4 10 5 21 11 S 1011,9 40 0,0
12.12.2019 10:00:00 4,6 0,9 4,0 4,9 9,4 7 4 13 7 S 1012,2 40 0,0
12.12.2019 09:00:00 4,0 0,7 3,2 4,9 9,4 9 5 16 9 SE 1012,5 30 0,0
12.12.2019 08:00:00 3,6 1,0 2,9 4,9 9,4 11 6 16 9 SE 1012,8 30 0,0
12.12.2019 07:00:00 3,6 1,6 2,5 4,9 9,5 12 6 19 10 SE 1013,0 30 0,0
12.12.2019 06:00:00 3,8 0,5 1,1 5,0 9,5 7 4 13 7 SSE 1012,9 40 0,0
12.12.2019 05:00:00 2,7 0,1 0,2 5,1 9,5 6 4 19 10 E 1012,9 25 0,0
12.12.2019 04:00:00 2,8 1,8 0,5 5,2 9,5 6 3 17 9 S 1012,6 25 0,0
12.12.2019 03:00:00 3,9 2,4 1,5 5,2 9,5 5 3 16 9 SW 1012,3 35 0,0
12.12.2019 02:00:00 4,0 2,8 3,4 5,2 9,5 10 5 23 12 W 1011,9 20 0,2
12.12.2019 01:00:00 4,1 2,8 3,0 5,3 9,5 16 8 24 13 SSW 1011,6 35 0,0
12.12.2019 00:00:00 3,3 2,0 2,9 5,3 9,5 6 3 22 12 SSW 1011,8 15 0,0
11.12.2019 23:00:00 3,3 2,1 2,2 5,4 9,5 17 9 25 13 SE 1012,0 15 0,0
11.12.2019 22:00:00 3,2 2,3 2,6 5,5 9,5 17 9 25 13 SE 1013,0 15 0,0
11.12.2019 21:00:00 4,1 3,1 3,7 5,5 9,6 12 7 23 12 SSE 1014,1 20 0,0
11.12.2019 20:00:00 4,7 3,7 4,3 5,5 9,6 16 9 23 12 SE 1014,6 20 0,0
11.12.2019 19:00:00 4,9 3,7 4,5 5,5 9,6 11 6 16 9 SSE 1015,5 13 0,0
11.12.2019 18:00:00 4,7 4,6 4,3 5,5 9,6 11 6 16 9 E 1015,9 4,5 1,2
11.12.2019 17:00:00 4,4 4,1 4,1 5,4 9,6 11 6 16 9 ESE 1015,7 4,5 2,0
11.12.2019 16:00:00 4,2 3,8 4,0 5,4 9,6 8 5 18 10 NW 1015,3 3,0 2,6
11.12.2019 15:00:00 4,5 3,9 4,2 5,3 9,6 6 3 10 6 SSE 1014,2 4,0 3,2
11.12.2019 14:00:00 4,6 3,1 3,9 5,2 9,6 3 2 27 15 S 1013,8 4,0 0,8
11.12.2019 13:00:00 4,0 2,2 3,7 5,1 9,6 4 2 11 6 E 1014,2 10 0,6
11.12.2019 12:00:00 4,1 1,5 3,2 5,0 9,6 6 3 15 8 SSW 1014,7 15 0,2
11.12.2019 11:00:00 3,1 0,5 2,9 4,9 9,6 0 0 9 5 N 1015,8 10 0,0
11.12.2019 10:00:00 2,7 0,3 2,8 4,9 9,6 9 5 16 9 W 1016,8 40 0,0
11.12.2019 09:00:00 3,0 -0,8 2,1 4,9 9,7 10 6 17 9 SSE 1016,9 40 0,0
11.12.2019 08:00:00 2,4 -0,7 1,9 4,9 9,7 8 5 18 10 SSE 1017,3 30 0,0
11.12.2019 07:00:00 2,2 -0,7 1,9 4,9 9,7 9 5 14 8 SE 1018,4 20 0,0
11.12.2019 06:00:00 2,1 -0,8 1,8 5,0 9,7 13 7 24 13 SE 1018,9 20 0,0
11.12.2019 05:00:00 2,2 -1,1 1,6 5,0 9,7 12 7 21 11 SSE 1019,8 20 0,0
11.12.2019 04:00:00 2,3 -1,0 1,2 5,1 9,7 6 4 20 11 SSE 1020,6 20 0,0
11.12.2019 03:00:00 1,6 -0,8 0,4 5,1 9,7 12 7 21 11 SSE 1021,1 13 0,0
11.12.2019 02:00:00 0,8 -0,7 -0,1 5,3 9,7 13 7 21 11 SE 1021,7 7 0,0
11.12.2019 01:00:00 0,7 -0,9 -0,4 5,4 9,7 3 1 18 10 SSW 1022,5 2,0 0,0
11.12.2019 00:00:00 1,4 -0,5 0,1 5,6 9,7 16 8 22 12 SSE 1023,3 14 0,0
10.12.2019 23:00:00 1,1 -0,8 -1,0 5,7 9,7 13 7 18 10 SE 1023,7 20 0,0
10.12.2019 22:00:00 1,5 -0,7 -1,5 5,9 9,7 0 0 9 5 N 1024,5 20 0,0
10.12.2019 21:00:00 1,5 -0,7 -1,4 6,1 9,7 3 2 8 4 NE 1025,3 20 0,0
10.12.2019 20:00:00 1,8 -0,5 -1,3 6,4 9,7 4 2 12 6 N 1025,7 20 0,0
10.12.2019 19:00:00 2,6 -0,5 0,1 6,5 9,7 7 4 14 7 NNW 1025,8 23 0,0
10.12.2019 18:00:00 3,4 -0,3 1,0 6,7 9,7 4 2 15 8 WNW 1026,0 25 0,0
10.12.2019 17:00:00 4,6 0,2 2,8 6,8 9,7 7 4 18 10 N 1025,8 33 0,0
10.12.2019 16:00:00 6,3 0,4 8,4 6,7 9,7 11 6 24 13 N 1026,3 36 0,0
10.12.2019 15:00:00 6,7 0,4 8,8 6,6 9,7 15 8 27 15 NNE 1026,8 20 0,0
10.12.2019 14:00:00 6,7 0,1 8,8 6,4 9,7 20 11 32 17 N 1027,8 33 0,0
10.12.2019 13:00:00 6,5 1,0 9,0 6,2 9,7 18 10 32 18 N 1028,3 28 0,0
10.12.2019 12:00:00 6,0 1,5 7,3 6,0 9,7 22 12 32 17 N 1029,4 28 0,0
10.12.2019 11:00:00 5,0 1,3 7,6 6,0 9,7 21 11 28 15 N 1030,0 20 0,0
10.12.2019 10:00:00 4,0 0,9 5,0 6,1 9,7 16 9 31 17 NNW 1030,4 20 0,0
10.12.2019 09:00:00 2,6 0,7 1,0 6,2 9,7 14 8 22 12 NNW 1030,4 27 0,0
10.12.2019 08:00:00 2,4 -0,2 1,2 6,4 9,7 14 8 19 10 NNW 1029,8 35 0,0
10.12.2019 07:00:00 3,1 0,3 1,9 6,6 9,7 9 5 31 17 NNE 1029,8 40 0,0
10.12.2019 06:00:00 4,1 0,8 3,2 6,7 9,7 19 10 37 20 NNW 1029,0 50 0,0
10.12.2019 05:00:00 4,6 0,9 3,9 6,8 9,7 29 15 37 20 NW 1028,3 40 0,0
10.12.2019 04:00:00 5,1 1,4 4,4 6,9 9,7 26 14 40 21 NNW 1027,9 50 0,0
10.12.2019 03:00:00 4,9 1,4 4,2 7,0 9,7 28 15 48 26 NNW 1027,2 50 0,0
10.12.2019 02:00:00 5,2 2,0 4,6 7,1 9,7 27 15 46 25 NNW 1026,1 48 0,0
10.12.2019 01:00:00 5,4 2,4 4,7 7,2 9,7 29 15 42 23 NNW 1025,3 50 0,0
10.12.2019 00:00:00 5,7 3,0 5,3 7,3 9,7 24 13 36 20 NW 1024,6 40 0,0
09.12.2019 23:00:00 5,9 2,7 4,5 7,5 9,7 25 14 38 21 NNW 1023,9 40 0,0
09.12.2019 22:00:00 5,6 2,9 4,4 7,6 9,7 20 11 48 26 NNW 1022,9 40 0,4
09.12.2019 21:00:00 6,6 3,6 5,7 7,6 9,6 26 14 39 21 NW 1021,5 40 0,0
09.12.2019 20:00:00 6,6 3,7 5,4 7,7 9,6 32 18 64 34 N 1020,3 40 0,0
09.12.2019 19:00:00 7,0 4,0 5,9 7,8 9,6 27 14 39 21 NW 1018,8 40 0,0
09.12.2019 18:00:00 7,2 4,2 6,4 7,8 9,6 23 13 50 27 NW 1017,7 40 0,0
09.12.2019 17:00:00 7,7 5,0 6,4 7,8 9,6 35 19 59 32 NW 1016,2 7 1,0
09.12.2019 16:00:00 8,9 4,9 7,8 7,8 9,6 19 11 32 18 WNW 1014,8 30 0,0
09.12.2019 15:00:00 7,9 5,9 6,9 7,7 9,6 9 5 36 19 W 1014,5 30 1,6
09.12.2019 14:00:00 8,8 5,5 7,9 7,6 9,6 21 11 41 22 WSW 1013,9 15 0,0
09.12.2019 13:00:00 9,2 5,6 7,6 7,5 9,6 17 9 41 22 SW 1013,9 40 0,2
09.12.2019 12:00:00 8,7 5,1 7,8 7,4 9,6 19 11 37 20 SSW 1014,2 20 0,2
09.12.2019 11:00:00 8,4 5,0 8,0 7,4 9,6 18 10 29 16 SSW 1014,3 40 0,0
09.12.2019 10:00:00 8,0 4,6 7,0 7,4 9,6 17 9 25 14 S 1014,0 40 0,0
09.12.2019 09:00:00 7,3 4,4 6,4 7,5 9,6 16 9 24 13 SSE 1014,2 40 0,0
09.12.2019 08:00:00 7,0 4,5 6,0 7,6 9,5 14 8 22 12 SSE 1014,5 40 0,0
09.12.2019 07:00:00 7,0 4,6 6,0 7,7 9,5 16 9 22 12 SW 1014,9 50 0,0
09.12.2019 06:00:00 7,7 5,0 6,2 7,7 9,5 19 10 32 17 WSW 1015,1 13 0,6
09.12.2019 05:00:00 8,3 2,9 5,3 7,9 9,5 7 4 26 14 S 1014,9 52 0,0
09.12.2019 04:00:00 8,9 3,1 7,5 7,9 9,5 19 11 28 15 S 1014,7 50 0,0
09.12.2019 03:00:00 9,6 4,4 8,2 8,0 9,5 17 9 28 15 SSW 1015,4 35 0,0
09.12.2019 02:00:00 8,9 6,9 8,3 8,0 9,5 9 5 19 10 SW 1016,5 50 0,0
09.12.2019 01:00:00 8,8 6,9 7,5 8,0 9,5 15 8 30 16 NW 1016,7 50 0,0
09.12.2019 00:00:00 9,9 7,0 8,9 8,1 9,5 11 6 27 15 S 1015,9 50 0,0
08.12.2019 23:00:00 10,1 6,8 9,5 8,1 9,5 14 8 31 17 S 1015,5 50 0,0
08.12.2019 22:00:00 10,3 7,0 9,7 8,1 9,5 22 12 40 22 S 1015,1 50 0,0
08.12.2019 21:00:00 10,3 7,2 8,5 8,0 9,5 19 11 30 16 S 1015,5 50 0,0
08.12.2019 20:00:00 9,6 7,7 8,5 8,1 9,5 16 9 32 18 S 1015,9 3,5 1,0
08.12.2019 19:00:00 10,8 6,3 8,6 8,1 9,5 19 10 36 19 S 1015,6 20 0,2
08.12.2019 18:00:00 11,3 5,2 10,6 8,1 9,5 16 9 28 15 SSE 1015,8 50 0,0
08.12.2019 17:00:00 11,6 4,8 10,7 8,1 9,5 16 9 26 14 S 1015,9 50 0,0
08.12.2019 16:00:00 12,4 4,8 11,9 8,0 9,5 10 6 23 12 S 1016,1 50 0,0
08.12.2019 15:00:00 13,0 4,7 13,0 7,8 9,5 16 8 29 15 S 1016,1 50 0,0
08.12.2019 14:00:00 13,8 4,6 13,7 7,5 9,5 19 11 27 15 S 1016,8 40 0,0
08.12.2019 13:00:00 13,5 4,4 13,7 7,2 9,4 16 9 25 13 S 1017,9 40 0,0
08.12.2019 12:00:00 12,0 5,8 11,8 7,0 9,4 9 5 22 12 SE 1019,0 40 0,0
08.12.2019 11:00:00 10,4 5,4 10,2 6,8 9,4 8 4 16 9 SSE 1020,1 40 0,0
08.12.2019 10:00:00 8,5 5,1 6,6 6,8 9,4 9 5 27 14 S 1020,2 25 0,0
08.12.2019 09:00:00 6,3 4,5 5,5 6,9 9,4 21 11 28 15 SE 1020,2 17 0,0
08.12.2019 08:00:00 6,1 4,4 5,7 6,9 9,5 15 8 20 11 SE 1020,5 15 0,0
08.12.2019 07:00:00 7,0 5,0 6,3 6,9 9,4 10 6 15 8 SE 1020,6 15 0,0
08.12.2019 06:00:00 6,5 4,8 6,1 7,0 9,4 8 4 28 15 SSW 1020,8 10 0,0
08.12.2019 05:00:00 6,3 4,8 6,1 7,0 9,4 20 11 28 15 SE 1020,6 8 0,0
08.12.2019 04:00:00 7,2 5,3 6,9 7,0 9,5 17 9 27 14 SE 1021,5 9 0,0
08.12.2019 03:00:00 7,1 5,4 6,9 7,0 9,4 9 5 21 12 SSE 1021,8 8 0,0
08.12.2019 02:00:00 7,7 5,8 7,1 7,0 9,4 13 7 18 10 SE 1022,2 8 0,0
08.12.2019 01:00:00 7,7 5,8 7,0 7,0 9,4 3 1 18 10 NNW 1022,1 7 0,0
08.12.2019 00:00:00 8,2 5,8 7,4 7,0 9,5 4 2 15 8 S 1022,7 10 0,0
07.12.2019 23:00:00 8,8 5,9 7,3 7,0 9,4 8 5 19 11 W 1022,8 9 0,0
07.12.2019 22:00:00 8,2 5,7 7,4 7,0 9,5 3 2 20 11 NNW 1022,9 9 0,0
07.12.2019 21:00:00 8,5 5,8 7,2 7,1 9,5 6 4 11 6 E 1022,6 13 0,0
07.12.2019 20:00:00 8,4 5,9 7,1 7,1 9,5 2 1 4 2 S 1022,8 13 0,0
07.12.2019 19:00:00 8,6 5,9 7,4 7,1 9,5 4 2 7 4 N 1022,6 15 0,0
07.12.2019 18:00:00 9,1 6,0 7,3 7,0 9,5 5 3 13 7 SW 1022,2 20 0,0
07.12.2019 17:00:00 9,9 6,2 8,8 7,0 9,5 2 1 11 6 W 1021,9 20 0,0
07.12.2019 16:00:00 10,9 6,4 10,9 6,7 9,5 6 3 15 8 NE 1021,7 20 0,0
07.12.2019 15:00:00 11,6 6,1 13,2 6,5 9,5 8 4 12 6 N 1021,3 20 0,0
07.12.2019 14:00:00 11,4 5,7 12,5 6,1 9,5 0 0 9 5 N 1021,2 20 0,0
07.12.2019 13:00:00 12,3 5,2 12,0 5,7 9,5 5 3 10 5 E 1021,6 20 0,0
07.12.2019 12:00:00 9,8 4,0 10,5 5,4 9,5 2 1 10 5 E 1022,5 20 0,0
07.12.2019 11:00:00 8,5 3,9 9,0 5,3 9,5 4 2 13 7 SE 1023,0 20 0,0
07.12.2019 10:00:00 7,6 3,1 5,6 5,2 9,6 6 3 13 7 S 1022,5 20 0,0
07.12.2019 09:00:00 4,5 2,2 1,9 5,2 9,5 7 4 11 6 SE 1022,9 20 0,0
07.12.2019 08:00:00 5,3 2,1 3,2 5,2 9,6 3 1 9 5 SSE 1022,4 20 0,0
07.12.2019 07:00:00 4,5 2,7 2,1 5,3 9,6 2 1 9 5 NE 1021,9 15 0,0
07.12.2019 06:00:00 5,4 2,9 4,5 5,2 9,6 2 1 10 5 SSE 1021,2 15 0,0
07.12.2019 05:00:00 6,3 2,9 4,7 5,2 9,6 5 3 10 6 SSE 1020,8 20 0,0
07.12.2019 04:00:00 5,2 3,4 4,4 5,2 9,6 4 2 9 5 NE 1021,1 20 0,0
07.12.2019 03:00:00 5,5 3,3 4,7 5,1 9,6 4 2 16 9 NW 1021,2 20 0,0
07.12.2019 02:00:00 7,1 2,8 5,2 5,1 9,6 6 3 17 9 S 1020,6 20 0,0
07.12.2019 01:00:00 6,1 2,7 5,0 5,0 9,6 13 7 20 11 SE 1021,1 15 0,0
07.12.2019 00:00:00 5,4 2,2 4,3 5,0 9,7 7 4 15 8 S 1021,4 20 0,0
06.12.2019 23:00:00 5,1 2,1 3,2 5,1 9,7 8 4 11 6 SE 1021,5 18 0,0
06.12.2019 22:00:00 4,2 1,9 3,3 5,1 9,7 3 2 10 5 SSW 1021,5 18 0,0
06.12.2019 21:00:00 4,8 1,5 3,7 5,1 9,7 9 5 14 8 SE 1021,2 16 0,0
06.12.2019 20:00:00 5,3 1,8 2,6 5,2 9,7 3 1 14 8 E 1021,2 10 0,0
06.12.2019 19:00:00 5,9 2,0 1,1 5,3 9,8 3 2 14 7 WNW 1020,9 10 0,0
06.12.2019 18:00:00 4,4 3,1 0,6 5,3 9,8 5 3 11 6 SSE 1020,9 6 0,0
06.12.2019 17:00:00 6,5 3,8 3,0 5,2 9,8 4 2 10 5 S 1020,9 5 0,0
06.12.2019 16:00:00 8,4 5,1 10,3 4,9 9,8 4 2 9 5 ESE 1020,9 10 0,0
06.12.2019 15:00:00 8,6 4,0 9,9 4,6 9,8 5 3 9 5 SSE 1021,3 15 0,0
06.12.2019 14:00:00 7,2 4,0 7,7 4,3 9,8 4 2 11 6 S 1022,3 8 0,0
06.12.2019 13:00:00 5,2 2,9 6,2 3,9 9,8 0 0 14 8 N 1023,1 8 0,0
06.12.2019 12:00:00 2,3 1,9 2,0 3,7 9,9 8 4 11 6 SSE 1024,5 2,0 0,0

tt = temperature
td = dewpoint
tt 5cm = temperature 5cm
tt -20cm = temperature -20cm
tt -100cm = temperature -100cm
ff = wind speed
fx = gusts
dd = wind direction
ppp = reduced air pressure
vv = visibility
rr = precipitation

Next stations